Weather History for KEZF - December, 2012

Change the Weather History Date:

Thursday, December 6, 2012

  Actual Average (KNYG) Record (KNYG)
Temperature  
Mean Temperature 38 °F -  
Max Temperature 46 °F 48 °F 78 °F (1998)
Min Temperature 30 °F 32 °F 19 °F (2002)
Degree Days  
Heating Degree Days 27    
Moisture  
Dew Point 26 °F    
Average Humidity 64    
Maximum Humidity 88    
Minimum Humidity 40    
Precipitation  
Precipitation 0.00 in - - ()
Sea Level Pressure  
Sea Level Pressure 30.32 in    
Wind  
Wind Speed 4 mph (NNE)    
Max Wind Speed 10 mph    
Max Gust Speed -    
Visibility 10 miles    
Events      
Averages and records for this station are not official NWS values.
T = Trace of Precipitation, MM = Missing Value Source: NWS Daily Summary

Daily Weather History Graph

Daily Weather History Graph

Search for Another Location

Airport or City:

Trip Planner

Search our weather history database for the weather conditions in past years. The results will help you decide how hot, cold, wet, or windy it might be!

Date:

Astronomy

Dec. 06, 2012 Rise Set
Actual Time 7:12 AM EST 4:49 PM EST
Civil Twilight 6:43 AM EST 5:18 PM EST
Nautical Twilight 6:10 AM EST 5:51 PM EST
Astronomical Twilight 5:38 AM EST 6:23 PM EST
Moon No Moon Rise 12:09 PM EST (12/6)
Length of Visible Light 10h 35m
Length of Day
9h 36m
Waning Gibbous, 49% of the Moon is Illuminated
Dec 6
Waning Gibbous
Dec 13
New
Dec 20
First Quarter
Dec 28
Full
Jan 4
Last Quarter

Hourly Weather History & Observations

Time (EST) Temp. Windchill Dew Point Humidity Pressure Visibility Wind Dir Wind Speed Gust Speed Precip Events Conditions
12:15 AM 42.8 °F 37.0 °F 26.6 °F 53% 30.30 in 10.0 mi North 10.4 mph - N/A   Clear
12:35 AM 42.8 °F 38.0 °F 26.6 °F 53% 30.30 in 10.0 mi North 8.1 mph - N/A   Clear
12:55 AM 41.0 °F 35.8 °F 26.6 °F 57% 30.30 in 10.0 mi NNW 8.1 mph - N/A   Clear
1:15 AM 39.2 °F 33.6 °F 26.6 °F 61% 30.30 in 10.0 mi North 8.1 mph - N/A   Clear
1:35 AM 39.2 °F 37.0 °F 26.6 °F 61% 30.31 in 10.0 mi NNW 3.5 mph - N/A   Clear
1:55 AM 39.2 °F 35.0 °F 26.6 °F 61% 30.31 in 10.0 mi North 5.8 mph - N/A   Clear
2:15 AM 39.2 °F 35.9 °F 26.6 °F 61% 30.32 in 10.0 mi North 4.6 mph - N/A   Clear
2:36 AM 37.4 °F 34.9 °F 26.6 °F 65% 30.32 in 10.0 mi NNW 3.5 mph - N/A   Clear
2:56 AM 37.4 °F 34.9 °F 26.6 °F 65% 30.32 in 10.0 mi NNW 3.5 mph - N/A   Clear
3:15 AM 35.6 °F - 24.8 °F 65% 30.33 in 10.0 mi Calm Calm - N/A   Clear
3:35 AM 35.6 °F 31.7 °F 26.6 °F 70% 30.32 in 10.0 mi NNW 4.6 mph - N/A   Clear
3:55 AM 33.8 °F - 24.8 °F 70% 30.33 in 10.0 mi Calm Calm - N/A   Clear
4:15 AM 33.8 °F 30.8 °F 26.6 °F 75% 30.32 in 10.0 mi NNW 3.5 mph - N/A   Clear
4:35 AM 32.0 °F - 24.8 °F 75% 30.33 in 10.0 mi Calm Calm - N/A   Clear
5:04 AM 33.8 °F 30.8 °F 26.6 °F 75% 30.32 in 10.0 mi North 3.5 mph - N/A   Clear
5:16 AM 33.8 °F 30.8 °F 26.6 °F 75% 30.33 in 10.0 mi North 3.5 mph - N/A   Clear
5:44 AM 33.8 °F 28.6 °F 26.6 °F 75% 30.33 in 10.0 mi North 5.8 mph - N/A   Clear
5:56 AM 33.8 °F 28.6 °F 26.6 °F 75% 30.34 in 10.0 mi North 5.8 mph - N/A   Clear
6:25 AM 33.8 °F - 26.6 °F 75% 30.35 in 10.0 mi Calm Calm - N/A   Clear
6:35 AM 32.0 °F - 24.8 °F 75% 30.36 in 10.0 mi Calm Calm - N/A   Clear
6:56 AM 30.2 °F - 24.8 °F 80% 30.36 in 10.0 mi Calm Calm - N/A   Clear
7:16 AM 30.2 °F - 24.8 °F 80% 30.36 in 10.0 mi Calm Calm - N/A   Clear
7:36 AM 30.2 °F 26.7 °F 26.6 °F 86% 30.37 in 10.0 mi NNW 3.5 mph - N/A   Clear
8:05 AM 33.8 °F 30.8 °F 26.6 °F 75% 30.38 in 10.0 mi NW 3.5 mph - N/A   Clear
8:16 AM 35.6 °F 31.7 °F 26.6 °F 70% 30.39 in 10.0 mi NNW 4.6 mph - N/A   Clear
8:35 AM 36.0 °F 33.3 °F 26.6 °F 69% 30.39 in 10.0 mi North 3.5 mph - N/A   Clear
8:41 AM 35.6 °F 30.7 °F 26.6 °F 70% 30.39 in 10.0 mi North 5.8 mph - N/A   Clear
8:55 AM 36.5 °F 31.8 °F 27.0 °F 68% 30.39 in 10.0 mi North 5.8 mph - N/A   Clear
9:15 AM 37.8 °F 35.3 °F 27.0 °F 65% 30.39 in 10.0 mi NNE 3.5 mph - N/A   Clear
9:35 AM 38.8 °F 36.5 °F 26.4 °F 61% 30.39 in 10.0 mi NNE 3.5 mph - N/A   Clear
9:55 AM 40.5 °F 34.6 °F 24.8 °F 54% 30.39 in 10.0 mi NE 9.2 mph - N/A   Clear
10:15 AM 41.4 °F 36.8 °F 24.8 °F 52% 30.39 in 10.0 mi NNE 6.9 mph - N/A   Clear
10:35 AM 41.4 °F 38.4 °F 24.1 °F 50% 30.39 in 10.0 mi East 4.6 mph - N/A   Clear
10:55 AM 41.7 °F - 23.7 °F 49% 30.38 in 10.0 mi Calm Calm - N/A   Clear
11:15 AM 42.6 °F 40.9 °F 23.7 °F 47% 30.38 in 10.0 mi North 3.5 mph - N/A   Clear
11:35 AM 42.4 °F - 23.4 °F 47% 30.36 in 10.0 mi Calm Calm - N/A   Clear
11:55 AM 43.7 °F - 24.1 °F 46% 30.35 in 10.0 mi Calm Calm - N/A   Clear
12:15 PM 44.6 °F - 24.1 °F 44% 30.33 in 10.0 mi Calm Calm - N/A   Clear
12:35 PM 44.2 °F - 23.5 °F 44% 30.32 in 10.0 mi Calm Calm - N/A   Clear
12:55 PM 45.5 °F - 23.7 °F 42% 30.32 in 10.0 mi Calm Calm - N/A   Clear
1:15 PM 45.7 °F - 23.7 °F 42% 30.30 in 10.0 mi Calm Calm - N/A   Clear
1:35 PM 45.9 °F - 23.9 °F 42% 30.30 in 10.0 mi Calm Calm - N/A   Clear
1:55 PM 46.0 °F 44.8 °F 22.8 °F 40% 30.29 in 10.0 mi East 3.5 mph - N/A   Clear
2:15 PM 45.7 °F - 23.2 °F 41% 30.29 in 10.0 mi Calm Calm - N/A   Clear
2:35 PM 45.9 °F - 23.9 °F 42% 30.28 in 10.0 mi Calm Calm - N/A   Clear
2:55 PM 46.0 °F - 23.7 °F 42% 30.28 in 10.0 mi Calm Calm - N/A   Clear
3:15 PM 46.0 °F - 23.9 °F 42% 30.28 in 10.0 mi Calm Calm - N/A   Clear
3:35 PM 46.0 °F - 24.3 °F 42% 30.28 in 10.0 mi Calm Calm - N/A   Clear
3:55 PM 45.5 °F - 24.4 °F 44% 30.28 in 10.0 mi Calm Calm - N/A   Clear
4:15 PM 45.1 °F 43.7 °F 24.6 °F 45% 30.28 in 10.0 mi East 3.5 mph - N/A   Clear
4:35 PM 44.1 °F - 25.3 °F 48% 30.28 in 10.0 mi Calm Calm - N/A   Clear
4:55 PM 41.7 °F - 25.9 °F 53% 30.27 in 10.0 mi Calm Calm - N/A   Clear
5:15 PM 39.6 °F - 26.6 °F 60% 30.28 in 10.0 mi Calm Calm - N/A   Clear
5:35 PM 39.4 °F - 27.0 °F 61% 30.28 in 10.0 mi Calm Calm - N/A   Clear
5:55 PM 37.6 °F - 27.5 °F 67% 30.28 in 10.0 mi Calm Calm - N/A   Clear
6:35 PM 35.2 °F - 26.8 °F 71% 30.27 in 10.0 mi Calm Calm - N/A   Clear
6:55 PM 34.5 °F - 27.1 °F 74% 30.28 in 10.0 mi Calm Calm - N/A   Clear
7:15 PM 35.1 °F - 26.6 °F 71% 30.27 in 10.0 mi Calm Calm - N/A   Clear
7:35 PM 34.2 °F - 27.0 °F 75% 30.28 in 10.0 mi Calm Calm - N/A   Clear
7:55 PM 34.0 °F - 26.8 °F 75% 30.28 in 10.0 mi Calm Calm - N/A   Clear
8:15 PM 32.9 °F - 26.8 °F 78% 30.28 in 10.0 mi Calm Calm - N/A   Clear
8:35 PM 33.1 °F - 26.6 °F 77% 30.27 in 10.0 mi Calm Calm - N/A   Clear
8:55 PM 33.4 °F - 27.1 °F 78% 30.28 in 10.0 mi Calm Calm - N/A   Clear
9:35 PM 32.9 °F 29.8 °F 28.4 °F 84% 30.27 in 10.0 mi SE 3.5 mph - N/A   Clear
9:55 PM 33.3 °F 30.2 °F 28.9 °F 84% 30.27 in 10.0 mi ESE 3.5 mph - N/A   Clear
10:15 PM 33.4 °F - 29.1 °F 84% 30.27 in 10.0 mi Calm Calm - N/A   Scattered Clouds
10:35 PM 33.1 °F - 29.5 °F 87% 30.27 in 10.0 mi Calm Calm - N/A   Mostly Cloudy
10:55 PM 33.8 °F - 30.0 °F 86% 30.27 in 10.0 mi Calm Calm - N/A   Mostly Cloudy
11:15 PM 34.3 °F 31.4 °F 30.9 °F 87% 30.26 in 10.0 mi ESE 3.5 mph - N/A   Overcast
11:35 PM 35.2 °F 32.4 °F 32.0 °F 88% 30.26 in 10.0 mi SE 3.5 mph - N/A   Overcast
11:55 PM 36.5 °F 33.9 °F 32.0 °F 84% 30.25 in 10.0 mi SE 3.5 mph - N/A   Overcast